"2010-05-14 00:00:00",109900,3.969,159,11.61,1.176,10.46,102.5593,5.832,6.953,53.92,0,110,13.41,6.60,121.0
"2010-05-14 00:00:30",109901,3.981,170.8,15.82,0.996,10.91,102.5576,5.827,6.939,53.98,0,110,13.41,6.60,132.8
"2010-05-14 00:01:00",109902,3.955,184.4,12.67,1.01,9.45,102.5514,5.811,6.888,54.05,0,110,13.41,6.58,146.4
"2010-05-14 00:01:30",109903,1.965,168,8.66,0.225,5.599,102.5506,5.809,6.764,54.03,0,110,13.45,6.58,130.0
"2010-05-14 00:02:00",109904,1.833,157,6.92,0.173,5.406,102.55,5.808,6.71,53.94,0,110,13.45,6.58,119.0
"2010-05-14 00:02:30",109905,2.342,168.7,7.283,0.324,5.817,102.5453,5.796,6.727,53.91,0,110,13.45,6.57,130.7
"2010-05-14 00:03:00",109906,2.893,183.9,10.71,0.871,8.11,102.5515,5.812,6.866,53.89,0,110,13.42,6.58,145.9
"2010-05-14 00:03:30",109907,4.141,159.6,8.97,1.095,9.99,102.5612,5.836,6.923,53.9,0,110.1,13.42,6.61,121.6
"2010-05-14 00:04:00",109908,4.937,162.5,10.99,1.238,10.08,102.5658,5.848,6.999,54.09,0,110,13.41,6.62,124.5
"2010-05-14 00:04:30",109909,5.644,168.7,6.849,1.239,10.42,102.5675,5.853,6.985,53.98,0,110,13.41,6.63,130.7
"2010-05-14 00:05:00",109910,4.85,154.6,9.44,1.225,8.94,102.5775,5.878,6.912,53.75,0,110,13.41,6.65,116.6
"2010-05-14 00:05:30",109911,3.173,145.6,3.455,0.215,6.012,102.5804,5.885,6.751,53.44,0,110,13.44,6.66,107.6
"2010-05-14 00:06:00",109912,3.427,151.5,4.545,1.028,7.576,102.5867,5.902,6.9,53.88,0,110,13.41,6.67,113.5
"2010-05-14 00:06:30",109913,4.644,145.5,6.551,1.386,9.35,102.5907,5.912,6.918,53.85,0,110,13.41,6.68,107.5
"2010-05-14 00:07:00",109914,4.577,157,7.809,1.42,9.1,102.5973,5.929,6.939,54.64,0,110,13.41,6.70,119.0
"2010-05-14 00:07:30",109915,5.092,188.6,14.65,1.065,11.11,102.6001,5.936,7.045,54.62,0,110,13.41,6.71,150.6
"2010-05-14 00:08:00",109916,4.68,185.1,11.64,1.368,9.46,102.6033,5.944,6.96,54.55,0,110,13.41,6.72,147.1
"2010-05-14 00:08:30",109917,4.223,176.9,9.86,0.316,6.192,102.6081,5.956,6.792,54.55,0,110,13.45,6.73,138.9
"2010-05-14 00:09:00",109918,3.416,170.1,13.21,0.976,6.804,102.6087,5.958,6.811,54.67,0,110,13.42,6.73,132.1
"2010-05-14 00:09:30",109919,5.201,196,11.09,0.784,7.629,102.6087,5.958,6.811,54.39,0,110,13.41,6.73,158.0
"2010-05-14 00:10:00",109920,6.742,187.8,6.399,1.171,10.38,102.6082,5.956,7.049,54.3,0,110,13.42,6.73,149.8
"2010-05-14 00:10:30",109921,5.95,189,7.924,1.199,10.11,102.607,5.954,7.004,53.78,0,110,13.42,6.73,151.0
"2010-05-14 00:11:00",109922,6.054,194.5,6.891,1.139,10.64,102.6011,5.938,7.091,53.97,0,110,13.42,6.71,156.5
"2010-05-14 00:11:30",109923,5.707,198.6,6.46,1.338,9.08,102.5994,5.934,6.911,54.11,0,110,13.42,6.71,160.6
"2010-05-14 00:12:00",109924,4.149,183.9,3.169,0.226,6.066,102.5957,5.925,6.765,53.71,0,110,13.46,6.70,145.9
"2010-05-14 00:12:30",109925,5.233,186.4,8.37,1.277,7.999,102.5949,5.923,6.936,53.93,0,110,13.42,6.70,148.4
"2010-05-14 00:13:00",109926,4.583,177.2,7.94,1.083,7.482,102.5923,5.916,6.89,54.37,0,110,13.42,6.69,139.2
"2010-05-14 00:13:30",109927,6.723,191.4,6.341,1.055,10.63,102.5906,5.912,7.022,54.15,0,110,13.42,6.68,153.4
"2010-05-14 00:14:00",109928,7.078,197.9,3.585,0.844,11.42,102.5895,5.909,7.043,54.06,0,110,13.42,6.68,159.9
"2010-05-14 00:14:30",109929,6.704,200.3,6.109,0.979,10.51,102.5918,5.915,6.984,54.38,0,110,13.42,6.69,162.3
"2010-05-14 00:15:00",109930,5.389,183.2,4.021,0.244,6.35,102.5898,5.91,6.774,55.23,0,110,13.46,6.68,145.2
"2010-05-14 00:15:30",109931,6.649,188.9,8.76,1.198,8.28,102.5757,5.873,6.918,56,0,110,13.42,6.65,150.9
"2010-05-14 00:16:00",109932,5.778,186.2,4.638,1.053,7.55,102.5754,5.873,6.89,56.22,0,110,13.42,6.65,148.2
"2010-05-14 00:16:30",109933,7.183,184.2,6.488,1.485,10.57,102.5754,5.873,7.001,57.3,0,110,13.42,6.65,146.2
"2010-05-14 00:17:00",109934,7.447,188,7.154,1.013,10.84,102.5712,5.862,7.019,56.88,0,110,13.42,6.63,150.0
"2010-05-14 00:17:30",109935,7.427,184.5,4.441,0.957,10.81,102.5618,5.838,7.032,56.04,0,110,13.42,6.61,146.5
"2010-05-14 00:18:00",109936,6.198,181.7,6.153,0.921,7.555,102.5505,5.809,6.842,55.73,0,110,13.42,6.58,143.7
"2010-05-14 00:18:30",109937,6.133,174.7,6.673,1.064,6.92,102.5418,5.787,6.787,54.73,0,110,13.42,6.56,136.7
"2010-05-14 00:19:00",109938,7.296,186.2,8.52,1.213,8.56,102.5415,5.786,6.783,56.11,0,110,13.42,6.56,148.2
"2010-05-14 00:19:30",109939,7.324,178.8,7.297,1.231,9.39,102.5418,5.787,6.833,55.08,0,110,13.42,6.56,140.8
"2010-05-14 00:20:00",109940,7.89,181.1,6.035,0.919,11.32,102.5427,5.789,6.952,55.08,0,110,13.42,6.56,143.1
"2010-05-14 00:20:30",109941,7.285,184.2,5.83,1.175,10.86,102.5438,5.792,7.004,55.33,0,110,13.42,6.56,146.2
"2010-05-14 00:21:00",109942,6.833,178.7,7.596,1.33,9.05,102.545,5.795,6.94,55.3,0,110,13.42,6.57,140.7
"2010-05-14 00:21:30",109943,6.479,179,5.392,1.117,7.536,102.5461,5.798,6.714,55.21,0,110,13.42,6.57,141.0
"2010-05-14 00:22:00",109944,6.815,177.6,9.17,1.33,8.84,102.5451,5.795,6.784,55.66,0,110,13.42,6.57,139.6
"2010-05-14 00:22:30",109945,4.953,166.5,4.433,0.914,7.686,102.5392,5.78,6.821,55.6,0,110,13.42,6.55,128.5
"2010-05-14 00:23:00",109946,5.889,181.9,12.48,1.224,9.17,102.5426,5.789,6.818,55.29,0,110,13.42,6.56,143.9
"2010-05-14 00:23:30",109947,5.814,185.4,6.732,1.055,10.2,102.5382,5.778,6.902,55.15,0,110,13.42,6.55,147.4
"2010-05-14 00:24:00",109948,5.377,176.3,7.12,1.38,9.31,102.5348,5.769,6.952,55.62,0,110,13.42,6.54,138.3
"2010-05-14 00:24:30",109949,4.997,174.7,7.11,1.473,8.46,102.538,5.777,6.795,55.52,0,110,13.42,6.55,136.7
"2010-05-14 00:25:00",109950,3.815,178.9,5.621,0.877,6.978,102.5398,5.782,6.826,55.37,0,110,13.42,6.55,140.9
"2010-05-14 00:25:30",109951,4.931,180.2,8.35,1.409,7.663,102.5387,5.779,6.766,55.23,0,110,13.42,6.55,142.2
"2010-05-14 00:26:00",109952,5.489,187.4,6.623,1.297,8.26,102.5356,5.771,6.795,55.08,0,110,13.43,6.54,149.4
"2010-05-14 00:26:30",109953,5.795,189,8.04,1.227,9.35,102.5331,5.765,6.857,55.37,0,109.9,13.43,6.54,151.0
"2010-05-14 00:27:00",109954,6.507,202.9,6.782,1.318,10.17,102.5343,5.768,6.923,55.6,0,110,13.44,6.54,164.9
"2010-05-14 00:27:30",109955,6.827,208.5,5.261,0.956,10.46,102.5366,5.774,6.894,56.15,0,110,13.43,6.55,170.5
"2010-05-14 00:28:00",109956,4.526,192.8,9.81,1.235,8.64,102.5374,5.776,6.838,56.56,0,110,13.43,6.55,154.8
"2010-05-14 00:28:30",109957,4.72,195.2,7.131,1.285,8,102.5366,5.774,6.745,56.39,0,109.9,13.43,6.55,157.2
"2010-05-14 00:29:00",109958,4.434,203.6,6.33,1.326,7.988,102.5271,5.749,6.77,56.04,0,109.9,13.44,6.52,165.6
"2010-05-14 00:29:30",109959,3.993,200.9,3.034,1.038,7.296,102.5141,5.716,6.661,55.81,0,109.9,13.44,6.49,162.9
"2010-05-14 00:30:00",109960,4.655,204.6,6.485,1.355,7.854,102.5085,5.702,6.733,55.96,0,109.9,13.44,6.47,166.6
"2010-05-14 00:30:30",109961,5.634,212.6,6.651,1.007,10.62,102.5079,5.7,6.901,56.31,0,109.9,13.44,6.47,174.6
"2010-05-14 00:31:00",109962,6.323,200.8,8.96,1.044,10.19,102.5085,5.702,6.823,56.63,0,109.9,13.44,6.47,162.8
"2010-05-14 00:31:30",109963,4.934,192.8,3.713,0.843,7.388,102.5085,5.702,6.736,57.25,0,109.9,13.44,6.47,154.8
"2010-05-14 00:32:00",109964,5.503,200.8,6.389,1.179,7.568,102.5048,5.692,6.612,56.8,0,109.9,13.44,6.46,162.8
"2010-05-14 00:32:30",109965,5.302,207.2,9.04,0.611,6.585,102.4991,5.678,6.644,56.51,0,110,13.44,6.45,169.2
"2010-05-14 00:33:00",109966,6.011,209.8,4.337,1.315,9.44,102.4898,5.654,6.77,56.64,0,109.9,13.44,6.43,171.8
"2010-05-14 00:33:30",109967,6.634,209.6,6.541,1.049,10.82,102.4816,5.633,6.766,56.7,0,109.9,13.44,6.40,171.6
"2010-05-14 00:34:00",109968,5.684,198.9,7.449,1.081,10.02,102.4751,5.617,6.768,56.79,0,109.9,13.44,6.39,160.9
"2010-05-14 00:34:30",109969,4.875,197.7,15.8,1.029,9.62,102.4751,5.617,6.794,56.86,0,109.9,13.44,6.39,159.7
"2010-05-14 00:35:00",109970,3.748,210.9,4.472,0.979,6.535,102.4746,5.615,6.609,56.68,0,109.9,13.44,6.39,172.9
"2010-05-14 00:35:30",109971,3.302,201.8,10.94,0.315,5.757,102.4746,5.615,6.517,56.78,0,109.9,13.47,6.39,163.8
"2010-05-14 00:36:00",109972,3.781,193.5,7.906,1.315,7.834,102.4746,5.615,6.671,56.91,0,109.9,13.44,6.39,155.5
"2010-05-14 00:36:30",109973,4.863,205.2,15.78,1.454,8.85,102.4746,5.615,6.69,57.46,0,109.9,13.44,6.39,167.2
"2010-05-14 00:37:00",109974,4.725,194.8,18.39,1.381,10.02,102.4746,5.615,6.734,58.04,0,109.9,13.44,6.39,156.8
"2010-05-14 00:37:30",109975,4.53,188.8,14.38,1.371,9.09,102.4746,5.615,6.724,57.37,0,109.9,13.44,6.39,150.8
"2010-05-14 00:38:00",109976,4.546,208.8,5.329,1.425,8.93,102.4746,5.615,6.596,57.02,0,109.9,13.43,6.39,170.8
"2010-05-14 00:38:30",109977,4.238,200.7,2.567,0.392,5.717,102.4746,5.615,6.492,57.5,0,109.9,13.47,6.39,162.7
"2010-05-14 00:39:00",109978,3.319,207.6,2.529,0.306,5.776,102.4726,5.61,6.493,57.95,0,109.9,13.47,6.38,169.6
"2010-05-14 00:39:30",109979,4.185,199.9,8.33,1.06,8.26,102.4706,5.605,6.726,58.42,0,109.9,13.44,6.38,161.9
"2010-05-14 00:40:00",109980,5.305,203.2,8.16,1.084,9.81,102.4652,5.591,6.73,58.71,0,109.9,13.44,6.36,165.2
"2010-05-14 00:40:30",109981,5.083,205.2,7.395,1.096,10.17,102.4613,5.581,6.71,58.81,0,109.9,13.44,6.35,167.2
"2010-05-14 00:41:00",109982,4.496,211.5,6.288,1.143,9.36,102.4565,5.569,6.669,58.72,0,109.9,13.44,6.34,173.5
"2010-05-14 00:41:30",109983,3.246,214.5,6.427,0.951,6.749,102.4562,5.568,6.591,57.91,0,109.9,13.44,6.34,176.5
"2010-05-14 00:42:00",109984,2.956,208.4,6.875,0.154,5.606,102.4528,5.56,6.463,57.61,0,109.9,13.47,6.33,170.4
"2010-05-14 00:42:30",109985,4.655,219.9,8.15,1.154,8.96,102.4489,5.55,6.607,57.89,0,109.9,13.44,6.32,181.9
"2010-05-14 00:43:00",109986,3.987,219.9,9.96,1.468,8.74,102.4441,5.537,6.679,58.02,0,109.9,13.44,6.31,181.9
"2010-05-14 00:43:30",109987,4.123,229,7.824,1.248,9.08,102.4407,5.529,6.625,58.39,0,109.9,13.44,6.30,191.0
"2010-05-14 00:44:00",109988,4.17,222.6,9.47,1.254,9.39,102.4407,5.529,6.701,58.93,0,110,13.44,6.30,184.6
"2010-05-14 00:44:30",109989,3.467,221,5.154,1.374,8.84,102.4407,5.529,6.603,58.94,0,109.9,13.44,6.30,183.0
"2010-05-14 00:45:00",109990,1.927,212.6,6.158,0.311,5.604,102.4316,5.506,6.407,58.64,0,109.9,13.48,6.28,174.6
"2010-05-14 00:45:30",109991,3.153,206.1,6.642,0.975,6.053,102.4311,5.504,6.4,58.1,0,109.9,13.45,6.28,168.1
"2010-05-14 00:46:00",109992,5.029,209.7,8.12,1.003,9.46,102.4297,5.5,6.585,58.27,0,109.9,13.45,6.27,171.7
"2010-05-14 00:46:30",109993,4.906,223,7.918,1.393,9.22,102.4263,5.492,6.629,58.77,0,109.9,13.45,6.26,185.0
"2010-05-14 00:47:00",109994,4.74,230.5,7.273,1.223,9.14,102.4184,5.472,6.628,58.75,0,109.9,13.45,6.24,192.5
"2010-05-14 00:47:30",109995,4.199,227.8,14.1,1.26,9.29,102.4113,5.454,6.578,58.54,0,109.9,13.45,6.22,189.8
"2010-05-14 00:48:00",109996,2.192,205.2,5.419,0.181,6.11,102.4082,5.446,6.401,58.13,0,109.9,13.48,6.22,167.2
"2010-05-14 00:48:30",109997,1.851,206.7,6.564,0.192,5.485,102.4082,5.446,6.377,58.2,0,109.9,13.48,6.22,168.7
"2010-05-14 00:49:00",109998,2.699,200.8,8.28,1.287,6.43,102.4094,5.449,6.368,58.43,0,109.9,13.45,6.22,162.8
"2010-05-14 00:49:30",109999,3.838,211.3,11.96,1.243,8.55,102.4097,5.449,6.574,59.07,0,109.9,13.45,6.22,173.3
"2010-05-14 00:50:00",110000,4.43,203.5,4.676,1.117,9.99,102.4082,5.446,6.601,59.47,0,109.9,13.45,6.22,165.5
"2010-05-14 00:50:30",110001,3.825,200,7.122,1.238,8.68,102.4018,5.429,6.534,59.73,0,109.9,13.45,6.20,162.0
"2010-05-14 00:51:00",110002,3.975,197.8,7.812,1.185,9.17,102.3807,5.375,6.58,60.11,0,109.9,13.45,6.15,159.8
"2010-05-14 00:51:30",110003,2.958,187.3,7.141,1.209,6.586,102.3801,5.374,6.304,60,0,109.9,13.45,6.14,149.3
"2010-05-14 00:52:00",110004,2.175,194.5,10.43,0.116,5.785,102.3804,5.375,6.288,59.64,0,109.9,13.48,6.15,156.5
"2010-05-14 00:52:30",110005,4.157,210.2,7.421,1.098,9.2,102.381,5.376,6.469,59.49,0,109.9,13.45,6.15,172.2
"2010-05-14 00:53:00",110006,3.756,203.4,7.76,1.225,9.16,102.3818,5.378,6.492,59.45,0,109.9,13.45,6.15,165.4
"2010-05-14 00:53:30",110007,2.996,194.7,7.779,1.083,8.2,102.3847,5.386,6.484,59.17,0,109.9,13.45,6.16,156.7
"2010-05-14 00:54:00",110008,4.056,207,7.078,1.157,8.23,102.3865,5.39,6.395,58.98,0,109.9,13.44,6.16,169.0
"2010-05-14 00:54:30",110009,4.682,207.3,6.802,1.257,9.31,102.3891,5.397,6.474,59.03,0,109.9,13.44,6.17,169.3
"2010-05-14 00:55:00",110010,3.133,196,8.53,0.945,6.348,102.3914,5.403,6.317,58.62,0,109.9,13.44,6.17,158.0
"2010-05-14 00:55:30",110011,2.701,194.7,4.028,0.823,6.034,102.3937,5.409,6.297,58.67,0,109.9,13.44,6.18,156.7
"2010-05-14 00:56:00",110012,3.93,201.8,8.34,1.372,7.98,102.3965,5.416,6.466,59,0,109.9,13.45,6.19,163.8
"2010-05-14 00:56:30",110013,4.873,210.9,7.795,1.149,9.66,102.3963,5.415,6.526,59.03,0,109.9,13.45,6.19,172.9
"2010-05-14 00:57:00",110014,3.007,212,5.759,1.188,7.275,102.3972,5.417,6.415,59,0,109.9,13.45,6.19,174.0
"2010-05-14 00:57:30",110015,3.436,220.1,8.46,1.219,7.688,102.3992,5.423,6.405,59.02,0,109.9,13.45,6.19,182.1
"2010-05-14 00:58:00",110016,3.975,217.3,6.234,1.328,7.782,102.398,5.42,6.42,59.2,0,109.9,13.45,6.19,179.3
"2010-05-14 00:58:30",110017,3.219,213.1,5.224,1.147,7.571,102.3992,5.423,6.47,59.27,0,109.9,13.45,6.19,175.1
"2010-05-14 00:59:00",110018,3.6,210.6,7.201,1.367,7.83,102.4004,5.426,6.315,59.14,0,109.9,13.45,6.20,172.6
"2010-05-14 00:59:30",110019,4.198,217,6.515,1.335,8.27,102.4009,5.427,6.366,59.24,0,109.9,13.45,6.20,179.0
"2010-05-14 01:00:00",110020,4.64,220.5,7.857,1.15,10.12,102.4027,5.432,6.585,59.3,0,109.9,13.46,6.20,182.5
"2010-05-14 01:00:30",110021,3.359,207.1,10.33,1.019,7.481,102.4015,5.429,6.437,59.21,0,109.9,13.46,6.20,169.1
"2010-05-14 01:01:00",110022,3.593,203.8,7.069,1.115,7.463,102.4024,5.431,6.356,59.2,0,109.9,13.45,6.20,165.8
"2010-05-14 01:01:30",110023,4.354,209.2,9.84,1.205,8.08,102.4027,5.432,6.447,59.32,0,109.9,13.45,6.20,171.2
"2010-05-14 01:02:00",110024,3.329,195.6,5.793,0.542,6.648,102.4007,5.426,6.444,59.46,0,109.9,13.46,6.20,157.6
"2010-05-14 01:02:30",110025,4.109,203,6.334,1.388,8.82,102.4041,5.435,6.352,59.63,0,109.9,13.46,6.21,165.0
"2010-05-14 01:03:00",110026,4.469,192.6,5.439,1.532,9.24,102.4056,5.439,6.541,60.03,0,109.9,13.46,6.21,154.6
"2010-05-14 01:03:30",110027,5.871,194.4,8.26,1.275,9.93,102.4056,5.439,6.488,60.73,0,109.9,13.46,6.21,156.4
"2010-05-14 01:04:00",110028,5.302,190.8,7.632,1.307,9.19,102.3909,5.401,6.475,60.86,0,109.9,13.46,6.17,152.8
"2010-05-14 01:04:30",110029,4.582,188.5,9.88,1.293,7.226,102.3736,5.357,6.243,60.95,0,109.9,13.45,6.13,150.5
"2010-05-14 01:05:00",110030,4.825,198.2,8.37,1.321,7.395,102.3688,5.345,6.393,61.66,0,109.9,13.46,6.12,160.2
"2010-05-14 01:05:30",110031,5.684,194.7,7.337,1.314,8.72,102.3423,5.277,6.433,62.36,0,109.9,13.46,6.05,156.7
"2010-05-14 01:06:00",110032,5.42,200.7,6.402,1.161,9.79,102.3335,5.255,6.346,62.39,0,109.9,13.46,6.03,162.7
"2010-05-14 01:06:30",110033,5.491,201.7,12.22,1.154,9.62,102.3197,5.22,6.392,61.97,0,109.9,13.46,5.99,163.7
"2010-05-14 01:07:00",110034,6.406,194.5,8.93,1.266,9.48,102.3078,5.189,6.356,61.98,0,109.9,13.46,5.96,156.5
"2010-05-14 01:07:30",110035,4.388,193.4,6.937,1.553,6.556,102.3056,5.184,6.105,62.1,0,109.9,13.46,5.95,155.4
"2010-05-14 01:08:00",110036,5.333,187.4,7.907,1.304,9.21,102.3059,5.184,6.27,62.13,0,109.9,13.46,5.95,149.4
"2010-05-14 01:08:30",110037,6.029,192.5,9.98,1.191,9.4,102.3059,5.184,6.29,62.42,0,109.9,13.46,5.95,154.5
"2010-05-14 01:09:00",110038,6.935,207,7.062,0.971,10.55,102.2866,5.135,6.356,63.32,0,109.9,13.46,5.91,169.0
"2010-05-14 01:09:30",110039,5.385,183.3,16.06,1.497,9.95,102.272,5.098,6.272,63.33,0,109.9,13.46,5.87,145.3
"2010-05-14 01:10:00",110040,5.099,175.3,7.989,1.042,8.8,102.266,5.083,6.237,63.64,0,109.9,13.46,5.85,137.3
"2010-05-14 01:10:30",110041,3.655,170.7,3.818,0.21,5.316,102.2392,5.014,5.966,63.86,0,109.9,13.49,5.78,132.7
"2010-05-14 01:11:00",110042,4.112,180,15.38,1.389,7.198,102.2296,4.989,6.057,64.42,0,109.9,13.46,5.76,142.0
"2010-05-14 01:11:30",110043,5.954,209.2,10.5,1.246,9.61,102.205,4.927,6.149,64.5,0,109.9,13.46,5.70,171.2
"2010-05-14 01:12:00",110044,6.472,191.8,7.288,0.988,11.28,102.2041,4.924,6.188,64.41,0,109.9,13.46,5.69,153.8
"2010-05-14 01:12:30",110045,6.991,191.8,7.469,0.781,11.25,102.2041,4.924,6.162,64.54,0,109.9,13.46,5.69,153.8
"2010-05-14 01:13:00",110046,6.605,178.2,7.176,1.263,9,102.2041,4.924,6.102,64.42,0,109.9,13.45,5.69,140.2
"2010-05-14 01:13:30",110047,4.51,168.9,12.55,1.771,7.047,102.2041,4.924,5.863,64.47,0,109.9,13.45,5.69,130.9
"2010-05-14 01:14:00",110048,2.531,162.3,13.23,0.716,6.495,102.2041,4.924,5.993,64.85,0,109.9,13.46,5.69,124.3
"2010-05-14 01:14:30",110049,2.95,177.4,9.68,1.103,6.851,102.1843,4.874,5.893,65.16,0,109.9,13.46,5.64,139.4
"2010-05-14 01:15:00",110050,4.27,199,13.39,1.31,9.1,102.1702,4.838,6.003,65.45,0,109.9,13.46,5.61,161.0
"2010-05-14 01:15:30",110051,5.08,210.8,5.494,1.031,10.33,102.1694,4.836,6.049,65.64,0,109.9,13.46,5.60,172.8
"2010-05-14 01:16:00",110052,3.837,217.3,6.159,1.182,9.08,102.1437,4.77,5.988,65.95,0,109.9,13.47,5.54,179.3
"2010-05-14 01:16:30",110053,3.083,217.8,8.5,0.991,7.517,102.1363,4.751,5.949,65.88,0,109.9,13.47,5.52,179.8
"2010-05-14 01:17:00",110054,4.614,224.9,9.09,1.104,7.107,102.1363,4.751,5.784,65.34,0,109.9,13.46,5.52,186.9
"2010-05-14 01:17:30",110055,4.631,218.6,6.199,1.382,7.625,102.1363,4.751,5.849,65.24,0,109.9,13.47,5.52,180.6
"2010-05-14 01:18:00",110056,4.094,211.2,10.08,1.524,7.847,102.1363,4.751,5.777,65.63,0,109.9,13.47,5.52,173.2
"2010-05-14 01:18:30",110057,5.715,213.2,12.9,0.94,10.59,102.1363,4.751,5.982,65.98,0,109.9,13.47,5.52,175.2
"2010-05-14 01:19:00",110058,5.748,216,18.91,1.001,10.6,102.1363,4.751,5.969,66.48,0,109.9,13.47,5.52,178.0
"2010-05-14 01:19:30",110059,4.373,222.6,7.17,1.28,8.75,102.1363,4.751,5.894,66.55,0,109.9,13.47,5.52,184.6
"2010-05-14 01:20:00",110060,2.686,224.1,8.63,0.977,7.457,102.1363,4.751,5.832,66.43,0,109.9,13.47,5.52,186.1
"2010-05-14 01:20:30",110061,1.717,211,8.6,0.154,5.155,102.1366,4.752,5.745,66.32,0,109.9,13.5,5.52,173.0
"2010-05-14 01:21:00",110062,2.048,192.1,11.46,0.233,5.231,102.1363,4.751,5.677,66.26,0,109.9,13.51,5.52,154.1
"2010-05-14 01:21:30",110063,1.682,188.6,9.2,0.316,5.796,102.1366,4.752,5.721,66.63,0,109.9,13.51,5.52,150.6
"2010-05-14 01:22:00",110064,4.399,208.9,8.58,1.27,9.7,102.1372,4.753,5.925,66.62,0,109.9,13.47,5.52,170.9
"2010-05-14 01:22:30",110065,6.285,204.5,6.363,1.203,10.56,102.138,4.756,5.963,67.58,0,109.9,13.48,5.52,166.5
"2010-05-14 01:23:00",110066,7.538,204.2,4.535,0.668,10.74,102.1398,4.76,5.977,67.59,0,109.9,13.48,5.53,166.2
"2010-05-14 01:23:30",110067,7.041,207.9,6.539,1.056,9.58,102.1461,4.776,5.849,67.65,0,109.9,13.47,5.55,169.9
"2010-05-14 01:24:00",110068,5.175,205.8,3.099,0.661,5.596,102.1487,4.783,5.654,67.23,0,109.9,13.47,5.55,167.8
"2010-05-14 01:24:30",110069,6.512,214.4,6.253,1.441,7.334,102.1474,4.78,5.769,67.78,0,109.9,13.47,5.55,176.4
"2010-05-14 01:25:00",110070,7.144,213.1,5.698,1.208,8.81,102.1435,4.77,5.842,68.42,0,109.9,13.48,5.54,175.1
"2010-05-14 01:25:30",110071,7.655,216.3,5.704,0.949,10.53,102.1345,4.747,5.936,68.36,0,109.8,13.47,5.52,178.3
"2010-05-14 01:26:00",110072,7.454,215.9,4.758,0.94,10.68,102.124,4.72,5.965,68.76,0,109.8,13.47,5.49,177.9
"2010-05-14 01:26:30",110073,6.786,208.4,7.501,1.053,10.01,102.1264,4.726,5.94,68.75,0,109.8,13.47,5.49,170.4
"2010-05-14 01:27:00",110074,4.971,207.1,13,1.669,7.019,102.1148,4.696,5.604,68.25,0,109.8,13.47,5.46,169.1
"2010-05-14 01:27:30",110075,3.792,191.4,6.511,1.25,7.441,102.0985,4.655,5.609,67.84,0,109.8,13.47,5.42,153.4
"2010-05-14 01:28:00",110076,3.643,190.3,4.715,1.172,7.517,102.0976,4.652,5.697,67.74,0,109.8,13.47,5.42,152.3
"2010-05-14 01:28:30",110077,3.016,192.3,3.185,0.225,5.875,102.1008,4.661,5.606,67.8,0,109.8,13.51,5.43,154.3
"2010-05-14 01:29:00",110078,4.626,205.1,8.24,1.056,9.68,102.1017,4.663,5.792,68.06,0,109.8,13.47,5.43,167.1
"2010-05-14 01:29:30",110079,3.775,234.2,10.56,0.786,10.1,102.1005,4.66,5.839,68.48,0,109.8,13.47,5.43,196.2
"2010-05-14 01:30:00",110080,2.701,211,17.97,1.281,7.636,102.1008,4.661,5.66,68.19,0,109.8,13.47,5.43,173.0
"2010-05-14 01:30:30",110081,2.812,204.4,12.01,0.546,5.002,102.1017,4.663,5.513,67.87,0,109.8,13.51,5.43,166.4
"2010-05-14 01:31:00",110082,4.073,226.1,6.316,1.183,6.968,102.1023,4.664,5.654,68.15,0,109.8,13.48,5.43,188.1
"2010-05-14 01:31:30",110083,3.814,236.5,6.463,1.323,7.292,102.0935,4.642,5.662,68.36,0,109.8,13.48,5.41,198.5
"2010-05-14 01:32:00",110084,4.714,231.6,7.621,1.583,7.438,102.083,4.615,5.662,68.82,0,109.8,13.48,5.38,193.6
"2010-05-14 01:32:30",110085,6.381,240.9,5.822,0.903,10.09,102.0788,4.604,5.794,70.1,0,109.8,13.48,5.37,202.9
"2010-05-14 01:33:00",110086,5.747,236.3,7.999,0.989,10.04,102.0692,4.58,5.759,69.84,0,109.8,13.48,5.35,198.3
"2010-05-14 01:33:30",110087,4.863,223.6,9.71,1.496,7.952,102.0692,4.58,5.658,69.91,0,109.8,13.48,5.35,185.6
"2010-05-14 01:34:00",110088,4.37,208.4,7.479,1.328,7.408,102.0692,4.58,5.568,69.47,0,109.8,13.48,5.35,170.4
"2010-05-14 01:34:30",110089,4.293,202.8,5.088,0.87,6.511,102.0692,4.58,5.6,68.85,0,109.8,13.48,5.35,164.8
"2010-05-14 01:35:00",110090,3.817,202.7,3.575,0.171,5.562,102.0692,4.58,5.458,68.49,0,109.8,13.52,5.35,164.7
"2010-05-14 01:35:30",110091,5.724,217,9.33,0.884,9.79,102.0692,4.58,5.717,68.74,0,109.9,13.48,5.35,179.0
"2010-05-14 01:36:00",110092,5.817,208.6,7.883,0.884,10.57,102.0692,4.58,5.791,68.98,0,109.8,13.48,5.35,170.6
"2010-05-14 01:36:30",110093,4.551,200.8,5.037,1.274,8.88,102.0692,4.58,5.682,68.78,0,109.8,13.48,5.35,162.8
"2010-05-14 01:37:00",110094,3.975,210.1,6.246,1.223,7.154,102.0692,4.58,5.573,68.59,0,109.8,13.48,5.35,172.1
"2010-05-14 01:37:30",110095,3.276,220.1,14.74,1.064,6.226,102.0692,4.58,5.599,68.68,0,109.8,13.48,5.35,182.1
"2010-05-14 01:38:00",110096,2.455,222.4,7.574,0.612,4.968,102.0692,4.58,5.455,68.74,0,109.8,13.52,5.35,184.4
"2010-05-14 01:38:30",110097,3.982,229.3,5.72,1.03,6.266,102.0672,4.575,5.518,69.26,0,109.8,13.49,5.34,191.3
"2010-05-14 01:39:00",110098,5.202,230.2,5.599,0.71,10.33,102.0565,4.547,5.746,69.85,0,109.8,13.49,5.32,192.2
"2010-05-14 01:39:30",110099,5.218,228.3,8.75,0.852,10.28,102.0469,4.523,5.74,70.09,0,109.8,13.49,5.29,190.3
"2010-05-14 01:40:00",110100,3.801,206.5,6.891,1.106,7.866,102.0406,4.507,5.667,70.42,0,109.8,13.49,5.27,168.5
"2010-05-14 01:40:30",110101,3.805,206.8,10.55,1.423,6.928,102.0375,4.499,5.469,69.78,0,109.8,13.49,5.27,168.8
"2010-05-14 01:41:00",110102,2.443,199.8,7.177,0.275,4.977,102.0361,4.495,5.417,70.31,0,109.8,13.52,5.26,161.8
"2010-05-14 01:41:30",110103,2.401,193,2.711,0.281,5.114,102.0356,4.494,5.423,70.75,0,109.8,13.52,5.26,155.0
"2010-05-14 01:42:00",110104,4.857,216.4,9.22,1.236,8.69,102.0353,4.493,5.59,69.95,0,109.8,13.49,5.26,178.4
"2010-05-14 01:42:30",110105,5.933,222.1,5.024,0.893,10.09,102.0361,4.495,5.682,69.73,0,109.8,13.49,5.26,184.1
"2010-05-14 01:43:00",110106,5.086,217.3,7.484,1.263,9.53,102.0387,4.502,5.649,69.64,0,109.9,13.49,5.27,179.3
"2010-05-14 01:43:30",110107,4.89,205.5,10.57,1.142,9.33,102.0463,4.521,5.665,69.35,0,109.8,13.48,5.29,167.5
"2010-05-14 01:44:00",110108,3.037,199.1,4.775,1.23,6.33,102.0579,4.551,5.421,68.96,0,109.8,13.48,5.32,161.1
"2010-05-14 01:44:30",110109,3.042,206,2.334,0.191,4.884,102.0602,4.557,5.418,69.15,0,109.8,13.52,5.32,168.0
"2010-05-14 01:45:00",110110,3.903,202.4,7.224,1.062,6.194,102.0619,4.561,5.489,69.31,0,109.8,13.48,5.33,164.4
"2010-05-14 01:45:30",110111,5.502,213,5.669,1.222,9.34,102.065,4.569,5.684,70.03,0,109.8,13.48,5.34,175.0
"2010-05-14 01:46:00",110112,5.637,218.4,6.238,1.143,9.72,102.063,4.564,5.732,70.49,0,109.8,13.48,5.33,180.4
"2010-05-14 01:46:30",110113,5.262,218.4,6.46,1.204,9.33,102.0528,4.538,5.688,70.25,0,109.8,13.48,5.31,180.4
"2010-05-14 01:47:00",110114,4.518,212.3,6.728,1.376,7.951,102.0387,4.502,5.614,70.11,0,109.8,13.49,5.27,174.3
"2010-05-14 01:47:30",110115,2.958,207.8,2.803,0.133,5.068,102.0356,4.494,5.427,69.87,0,109.8,13.52,5.26,169.8
"2010-05-14 01:48:00",110116,3.966,224.6,10.19,1.251,7.134,102.0353,4.493,5.487,69.72,0,109.8,13.49,5.26,186.6
"2010-05-14 01:48:30",110117,4.611,251.9,7.669,1.23,8.86,102.0353,4.493,5.607,69.65,0,109.8,13.5,5.26,213.9
"2010-05-14 01:49:00",110118,4.507,245.1,8.38,1.174,8.59,102.0353,4.493,5.617,69.69,0,109.8,13.5,5.26,207.1
"2010-05-14 01:49:30",110119,5.11,243.9,6.392,1.153,9.1,102.0327,4.487,5.622,69.92,0,109.8,13.5,5.25,205.9